Time,TemperatureF,DewpointF,PressureIn,WindDirection,WindDirectionDegrees,WindSpeedMPH,WindSpeedGustMPH,Humidity,HourlyPrecipIn,Conditions,Clouds,dailyrainin,SoftwareType,DateUTC
2013-03-16 00:09:00,49.7,45.0,30.20,West,277,0.0,0.0,84,0.00,,,0.00,weatherlink.com 1.10,2013-03-16 04:09:00,
2013-03-16 00:24:00,49.3,45.0,30.20,West,277,0.0,0.0,85,0.00,,,0.00,weatherlink.com 1.10,2013-03-16 04:24:00,
2013-03-16 00:39:00,48.4,44.0,30.20,West,277,0.0,0.0,86,0.00,,,0.00,weatherlink.com 1.10,2013-03-16 04:39:00,
2013-03-16 00:54:00,47.5,44.0,30.20,West,276,0.0,0.0,87,0.00,,,0.00,weatherlink.com 1.10,2013-03-16 04:54:00,
2013-03-16 01:09:00,47.3,45.0,30.20,West,277,0.0,0.0,90,0.00,,,0.00,weatherlink.com 1.10,2013-03-16 05:09:00,
2013-03-16 01:24:00,47.0,44.0,30.19,West,277,0.0,0.0,90,0.00,,,0.00,weatherlink.com 1.10,2013-03-16 05:24:00,
2013-03-16 01:39:00,46.9,44.0,30.19,West,277,0.0,0.0,90,0.00,,,0.00,weatherlink.com 1.10,2013-03-16 05:39:00,
2013-03-16 01:54:00,46.4,44.0,30.18,West,277,0.0,0.0,90,0.00,,,0.00,weatherlink.com 1.10,2013-03-16 05:54:00,
2013-03-16 02:09:00,46.0,44.0,30.18,West,277,0.0,0.0,91,0.00,,,0.00,weatherlink.com 1.10,2013-03-16 06:09:00,
2013-03-16 02:24:00,45.7,44.0,30.18,West,277,0.0,0.0,92,0.00,,,0.00,weatherlink.com 1.10,2013-03-16 06:24:00,
2013-03-16 02:39:00,45.4,44.0,30.18,West,277,0.0,0.0,93,0.00,,,0.00,weatherlink.com 1.10,2013-03-16 06:39:00,
2013-03-16 02:54:00,45.6,44.0,30.18,West,276,0.0,0.0,93,0.00,,,0.00,weatherlink.com 1.10,2013-03-16 06:54:00,
2013-03-16 03:09:00,45.7,44.0,30.17,West,276,0.0,0.0,94,0.00,,,0.00,weatherlink.com 1.10,2013-03-16 07:09:00,
2013-03-16 03:24:00,45.4,44.0,30.17,West,277,0.0,0.0,94,0.00,,,0.00,weatherlink.com 1.10,2013-03-16 07:24:00,
2013-03-16 03:39:00,45.1,44.0,30.17,West,277,0.0,0.0,94,0.00,,,0.00,weatherlink.com 1.10,2013-03-16 07:39:00,
2013-03-16 03:54:00,45.1,44.0,30.16,West,277,0.0,0.0,95,0.00,,,0.00,weatherlink.com 1.10,2013-03-16 07:54:00,
2013-03-16 04:09:00,45.3,44.0,30.16,West,277,0.0,0.0,95,0.00,,,0.00,weatherlink.com 1.10,2013-03-16 08:09:00,
2013-03-16 04:24:00,45.6,44.0,30.16,West,277,0.0,0.0,95,0.00,,,0.00,weatherlink.com 1.10,2013-03-16 08:24:00,
2013-03-16 04:39:00,45.5,44.0,30.15,West,277,0.0,0.0,95,0.00,,,0.00,weatherlink.com 1.10,2013-03-16 08:39:00,
2013-03-16 04:54:00,44.9,44.0,30.15,West,277,0.0,0.0,96,0.00,,,0.00,weatherlink.com 1.10,2013-03-16 08:54:00,
2013-03-16 05:09:00,45.3,44.0,30.15,West,277,0.0,0.0,96,0.00,,,0.00,weatherlink.com 1.10,2013-03-16 09:09:00,
2013-03-16 05:24:00,45.5,45.0,30.15,West,277,0.0,0.0,96,0.00,,,0.00,weatherlink.com 1.10,2013-03-16 09:24:00,
2013-03-16 05:39:00,45.4,44.0,30.15,West,277,0.0,0.0,95,0.00,,,0.00,weatherlink.com 1.10,2013-03-16 09:39:00,
2013-03-16 05:54:00,45.2,44.0,30.16,West,277,0.0,0.0,96,0.00,,,0.00,weatherlink.com 1.10,2013-03-16 09:54:00,
2013-03-16 06:09:00,45.6,45.0,30.16,West,277,0.0,0.0,96,0.00,,,0.00,weatherlink.com 1.10,2013-03-16 10:09:00,
2013-03-16 06:24:00,45.8,45.0,30.16,West,277,0.0,0.0,96,0.00,,,0.00,weatherlink.com 1.10,2013-03-16 10:24:00,
2013-03-16 06:39:00,46.1,45.0,30.16,West,277,0.0,0.0,97,0.00,,,0.00,weatherlink.com 1.10,2013-03-16 10:39:00,
2013-03-16 06:54:00,45.9,45.0,30.17,West,276,0.0,0.0,97,0.00,,,0.00,weatherlink.com 1.10,2013-03-16 10:54:00,
2013-03-16 07:09:00,45.4,44.0,30.17,West,276,0.0,0.0,96,0.00,,,0.00,weatherlink.com 1.10,2013-03-16 11:09:00,
2013-03-16 07:24:00,45.4,45.0,30.18,West,277,0.0,0.0,97,0.00,,,0.00,weatherlink.com 1.10,2013-03-16 11:24:00,
2013-03-16 07:39:00,44.8,44.0,30.18,West,277,0.0,0.0,96,0.00,,,0.00,weatherlink.com 1.10,2013-03-16 11:39:00,
2013-03-16 07:54:00,45.0,44.0,30.18,West,277,0.0,0.0,97,0.00,,,0.00,weatherlink.com 1.10,2013-03-16 11:54:00,
2013-03-16 08:09:00,46.8,46.0,30.18,West,277,0.0,0.0,98,0.00,,,0.00,weatherlink.com 1.10,2013-03-16 12:09:00,
2013-03-16 08:25:00,50.0,50.0,30.19,West,277,0.0,0.0,98,0.00,,,0.00,weatherlink.com 1.10,2013-03-16 12:25:00,
2013-03-16 08:39:00,51.5,51.0,30.19,ESE,113,0.0,1.0,97,0.00,,,0.00,weatherlink.com 1.10,2013-03-16 12:39:00,
2013-03-16 08:55:00,54.3,53.0,30.19,ESE,116,0.0,1.0,95,0.00,,,0.00,weatherlink.com 1.10,2013-03-16 12:55:00,
2013-03-16 09:10:00,56.4,52.0,30.19,ESE,108,0.0,3.0,86,0.00,,,0.00,weatherlink.com 1.10,2013-03-16 13:10:00,
2013-03-16 09:25:00,58.2,51.0,30.19,East,96,0.0,3.0,77,0.00,,,0.00,weatherlink.com 1.10,2013-03-16 13:25:00,
2013-03-16 09:40:00,59.5,50.0,30.20,ENE,68,2.0,4.0,72,0.00,,,0.00,weatherlink.com 1.10,2013-03-16 13:40:00,
2013-03-16 09:55:00,60.7,49.0,30.20,ESE,113,1.0,4.0,65,0.00,,,0.00,weatherlink.com 1.10,2013-03-16 13:55:00,
2013-03-16 10:10:00,62.1,46.0,30.19,NE,56,2.0,5.0,56,0.00,,,0.00,weatherlink.com 1.10,2013-03-16 14:10:00,
2013-03-16 10:25:00,64.0,47.0,30.19,East,98,0.0,5.0,54,0.00,,,0.00,weatherlink.com 1.10,2013-03-16 14:25:00,
2013-03-16 10:40:00,65.7,46.0,30.19,SE,132,1.0,5.0,49,0.00,,,0.00,weatherlink.com 1.10,2013-03-16 14:40:00,
2013-03-16 10:55:00,66.8,46.0,30.19,ESE,115,1.0,7.0,47,0.00,,,0.00,weatherlink.com 1.10,2013-03-16 14:55:00,
2013-03-16 11:10:00,67.7,44.0,30.19,ESE,103,2.0,5.0,43,0.00,,,0.00,weatherlink.com 1.10,2013-03-16 15:10:00,
2013-03-16 11:25:00,70.1,47.0,30.19,SSW,205,3.0,5.0,44,0.00,,,0.00,weatherlink.com 1.10,2013-03-16 15:25:00,
2013-03-16 11:40:00,71.2,50.0,30.19,SSE,149,4.0,6.0,47,0.00,,,0.00,weatherlink.com 1.10,2013-03-16 15:40:00,
2013-03-16 12:10:00,72.4,51.0,30.18,WSW,243,1.0,6.0,47,0.00,,,0.00,weatherlink.com 1.10,2013-03-16 16:10:00,
2013-03-16 12:25:00,73.3,50.0,30.18,SE,129,2.0,5.0,44,0.00,,,0.00,weatherlink.com 1.10,2013-03-16 16:25:00,
2013-03-16 12:40:00,73.4,51.0,30.17,SSW,208,1.0,7.0,45,0.00,,,0.00,weatherlink.com 1.10,2013-03-16 16:40:00,
2013-03-16 12:55:00,73.8,50.0,30.17,SE,142,2.0,7.0,43,0.00,,,0.00,weatherlink.com 1.10,2013-03-16 16:55:00,
2013-03-16 13:10:00,73.4,48.0,30.16,SW,229,2.0,10.0,40,0.00,,,0.00,weatherlink.com 1.10,2013-03-16 17:10:00,
2013-03-16 13:25:00,74.9,49.0,30.16,SE,142,1.0,6.0,40,0.00,,,0.00,weatherlink.com 1.10,2013-03-16 17:25:00,
2013-03-16 13:40:00,74.6,51.0,30.15,East,83,0.0,4.0,44,0.00,,,0.00,weatherlink.com 1.10,2013-03-16 17:40:00,
2013-03-16 13:55:00,74.2,53.0,30.15,East,79,2.0,7.0,47,0.00,,,0.00,weatherlink.com 1.10,2013-03-16 17:55:00,
2013-03-16 14:11:00,75.3,50.0,30.14,South,174,2.0,6.0,41,0.00,,,0.00,weatherlink.com 1.10,2013-03-16 18:11:00,
2013-03-16 14:26:00,75.6,52.0,30.13,WNW,300,1.0,6.0,44,0.00,,,0.00,weatherlink.com 1.10,2013-03-16 18:26:00,
2013-03-16 14:41:00,75.7,50.0,30.13,SW,224,2.0,5.0,41,0.00,,,0.00,weatherlink.com 1.10,2013-03-16 18:41:00,
2013-03-16 14:56:00,76.0,49.0,30.12,West,275,2.0,5.0,39,0.00,,,0.00,weatherlink.com 1.10,2013-03-16 18:56:00,
2013-03-16 15:11:00,75.3,48.0,30.11,West,269,3.0,7.0,38,0.00,,,0.00,weatherlink.com 1.10,2013-03-16 19:11:00,
2013-03-16 16:11:00,73.6,51.0,30.11,SE,146,1.0,7.0,46,0.00,,,0.00,weatherlink.com 1.10,2013-03-16 20:11:00,
2013-03-16 16:26:00,72.9,53.0,30.10,SSW,210,3.0,9.0,50,0.00,,,0.00,weatherlink.com 1.10,2013-03-16 20:26:00,
2013-03-16 16:56:00,72.6,55.0,30.09,SSW,193,1.0,7.0,54,0.00,,,0.00,weatherlink.com 1.10,2013-03-16 20:56:00,
2013-03-16 17:11:00,71.5,56.0,30.09,South,184,3.0,9.0,59,0.00,,,0.00,weatherlink.com 1.10,2013-03-16 21:11:00,
2013-03-16 17:26:00,70.7,56.0,30.10,West,259,2.0,8.0,59,0.00,,,0.00,weatherlink.com 1.10,2013-03-16 21:26:00,
2013-03-16 17:41:00,70.1,59.0,30.10,SSW,201,2.0,6.0,67,0.00,,,0.00,weatherlink.com 1.10,2013-03-16 21:41:00,
2013-03-16 17:56:00,69.6,60.0,30.10,SW,221,0.0,4.0,71,0.00,,,0.00,weatherlink.com 1.10,2013-03-16 21:56:00,
2013-03-16 18:11:00,69.7,60.0,30.09,ESE,115,0.0,5.0,70,0.00,,,0.00,weatherlink.com 1.10,2013-03-16 22:11:00,
2013-03-16 18:26:00,68.9,60.0,30.10,SSW,208,3.0,5.0,72,0.00,,,0.00,weatherlink.com 1.10,2013-03-16 22:26:00,
2013-03-16 18:41:00,68.9,59.0,30.10,WSW,255,0.0,5.0,71,0.00,,,0.00,weatherlink.com 1.10,2013-03-16 22:41:00,
2013-03-16 18:56:00,68.1,59.0,30.10,SSW,204,0.0,4.0,72,0.00,,,0.00,weatherlink.com 1.10,2013-03-16 22:56:00,
2013-03-16 19:11:00,67.3,58.0,30.10,WSW,237,0.0,8.0,73,0.00,,,0.00,weatherlink.com 1.10,2013-03-16 23:11:00,
2013-03-16 19:26:00,65.6,58.0,30.10,WSW,239,4.0,5.0,77,0.00,,,0.00,weatherlink.com 1.10,2013-03-16 23:26:00,
2013-03-16 19:41:00,64.2,58.0,30.10,SSW,208,0.0,2.0,80,0.00,,,0.00,weatherlink.com 1.10,2013-03-16 23:41:00,
2013-03-16 19:56:00,63.3,58.0,30.11,SW,228,0.0,2.0,82,0.00,,,0.00,weatherlink.com 1.10,2013-03-16 23:56:00,
2013-03-16 20:11:00,62.2,57.0,30.11,WSW,242,0.0,0.0,84,0.00,,,0.00,weatherlink.com 1.10,2013-03-17 00:11:00,
2013-03-16 20:26:00,61.3,57.0,30.10,West,262,0.0,1.0,86,0.00,,,0.00,weatherlink.com 1.10,2013-03-17 00:26:00,
2013-03-16 20:56:00,59.8,57.0,30.10,WSW,255,0.0,0.0,89,0.00,,,0.00,weatherlink.com 1.10,2013-03-17 00:56:00,
2013-03-16 21:26:00,58.4,56.0,30.10,WSW,253,0.0,0.0,90,0.00,,,0.00,weatherlink.com 1.10,2013-03-17 01:26:00,
2013-03-16 21:41:00,57.6,55.0,30.11,WSW,253,0.0,0.0,92,0.00,,,0.00,weatherlink.com 1.10,2013-03-17 01:41:00,
2013-03-16 21:56:00,56.6,54.0,30.11,WSW,253,0.0,0.0,92,0.00,,,0.00,weatherlink.com 1.10,2013-03-17 01:56:00,
2013-03-16 22:11:00,56.5,55.0,30.12,WSW,253,0.0,0.0,93,0.00,,,0.00,weatherlink.com 1.10,2013-03-17 02:11:00,
2013-03-16 22:26:00,55.8,54.0,30.12,WSW,252,0.0,0.0,93,0.00,,,0.00,weatherlink.com 1.10,2013-03-17 02:26:00,
2013-03-16 22:41:00,55.2,54.0,30.12,WSW,253,0.0,0.0,95,0.00,,,0.00,weatherlink.com 1.10,2013-03-17 02:41:00,
2013-03-16 22:56:00,55.1,54.0,30.12,WSW,252,0.0,0.0,95,0.00,,,0.00,weatherlink.com 1.10,2013-03-17 02:56:00,
2013-03-16 23:11:00,54.5,53.0,30.12,WSW,252,0.0,0.0,94,0.00,,,0.00,weatherlink.com 1.10,2013-03-17 03:11:00,
2013-03-16 23:26:00,53.9,53.0,30.12,WSW,253,0.0,0.0,95,0.00,,,0.00,weatherlink.com 1.10,2013-03-17 03:26:00,
2013-03-16 23:41:00,53.5,52.0,30.12,WSW,253,0.0,0.0,95,0.00,,,0.00,weatherlink.com 1.10,2013-03-17 03:41:00,
2013-03-16 23:56:00,53.9,53.0,30.12,WSW,253,0.0,0.0,96,0.00,,,0.00,weatherlink.com 1.10,2013-03-17 03:56:00,